Location: Newark
(7.0858°N, 171.3717°E)
Time: 09:43:03
(UTC+00:00)

S-56A Canister/Altair - Pass Details

Date: 30 November 2020
Orbit: 633 x 2499 km, 38.9° (Epoch: 27 January)

Event Time Altitude Azimuth Distance (km) Brightness Sun altitude
Rises 02:31:30 0° 207° (SSW) 5,838 12.7 47.4°
Reaches altitude 10° 02:35:47 10° 198° (SSW) 4,992 12.5 46.6°
Maximum altitude 02:48:31 34° 138° (SE) 3,542 11.3 44.2°
Drops below altitude 10° 03:00:46 10° 80° (E) 4,850 11.3 41.8°
Sets 03:04:45 0° 71° (ENE) 5,662 11.5 41.0°
